Погода в Тлумаче

Украина / Ивано-Франковская область     48°51′11″N   25°00′47″E
темп.,
°C
ветер,
м/с
пор.,
м/с
влажн.,
%
обл.,
%
осадки,
мм/ч
давл.,
гПа
погр.,
м
21 января, пт
пт2123:00−3зсз8156863 1.9 1012965
02:00−3зсз815665 1.9 1013918
05:00−3зсз815658 0.0 1014898
08:00−4зсз81560100 0.0 1015834
11:00−2зсз9145819 0.0 10151196
14:00−2зсз9146067 0.0 10151532
17:00−3зсз7136775 0.0 1015786
20:00−4з8157999 0.1 10161087
22 января, сб
сб2223:00−3зсз8147078 0.1 1016979
02:00−4зсз7147676 0.2 1016884
05:00−5зсз7137765 0.0 1015743
08:00−5зсз6137478 0.1 1015684
11:00−3зсз71267100 0.0 10161241
14:00−3зсз81593100 0.9 10161294
17:00−4сз6128675 0.8 1019585
20:00−5сз6128996 0.9 1022670
23 января, вс
вс2323:00−5сз71289100 0.1 1023848
02:00−5зсз71389100 0.1 1023922
05:00−4сз71394100 1.1 10221109
08:00−5ссз6119097 2.1 1024793
11:00−5ссз6987100 0.1 1026845
14:00−4ссз6887100 0.4 1027885
17:00−6ссз4893100 0.5 1029653
20:00−7ссз3795100 0.6 1032329
24 января, пн
пн2423:00−8ссз3597100 0.1 1033156
02:00−9ссз259685 0.3 1035189
05:00−11ссз229892 0.1 103674
08:00−11сз229795 0.1 103874
11:00−9сз348997 0.1 1038360
14:00−7ссз4483100 0.1 1037569
17:00−10ссз22956 0.0 103818
20:00−12з119746 0.0 103913
25 января, вт
вт2523:00−13з119740 0.0 103911
02:00−14з119516 0.0 103812
05:00−14зюз119414 0.0 103710
08:00−15з11915 0.0 103610
11:00−8зсз126996 0.0 1034102
14:00−5ссз2469100 0.0 1031153
17:00−9зсз118694 0.0 103010
20:00−5зюз2597100 0.3 1029150